When you browse on this site, cookies collect data to enhance your experience and personalize the content and advertising you see.
Visit our Privacy Policy to learn more. By continuing to use the site, you agree to this use of cookies and data.
  • In Czech Republic
  • List of Countries
  • For 7 days
  • Water Temperature
  • Weather Map
  • Weather Widgets
  • user-avatar
    Login

    Hourly Weather Staroe Zhukovo

    Today, 22 January, Wednesday

    Time Temperature Precipitation Wind Pressure Humidity
    00:00 -1°C° 0.1 mm 8 mps 729 mmHg 91%
    01:00 -2°C° 0.1 mm 8 mps 730 mmHg 86%
    02:00 -2°C° 0 mm 7 mps 730 mmHg 84%
    03:00 -3°C° 0 mm 7 mps 730 mmHg 85%
    04:00 -3°C° 0 mm 6 mps 729 mmHg 86%
    05:00 -4°C° 0 mm 6 mps 729 mmHg 87%
    06:00 -4°C° 0 mm 6 mps 728 mmHg 87%
    07:00 -4°C° 0 mm 6 mps 728 mmHg 88%
    08:00 -4°C° 0 mm 6 mps 728 mmHg 88%
    09:00 -4°C° 0 mm 6 mps 727 mmHg 88%
    10:00 -2°C° 0 mm 5 mps 727 mmHg 87%
    11:00 -2°C° 0 mm 5 mps 726 mmHg 87%
    12:00 -2°C° 0 mm 5 mps 726 mmHg 88%
    13:00 -2°C° 0 mm 5 mps 725 mmHg 88%
    14:00 -2°C° 0 mm 5 mps 724 mmHg 89%
    15:00 -2°C° 0.1 mm 5 mps 724 mmHg 91%
    16:00 -2°C° 0.1 mm 5 mps 724 mmHg 93%
    17:00 -4°C° 0.1 mm 5 mps 723 mmHg 96%
    18:00 -4°C° 0.5 mm 5 mps 724 mmHg 93%
    19:00 -4°C° 0.5 mm 5 mps 724 mmHg 91%
    20:00 -5°C° 0.5 mm 6 mps 724 mmHg 88%
    21:00 -5°C° 0 mm 6 mps 725 mmHg 88%
    22:00 -6°C° 0 mm 6 mps 725 mmHg 88%
    23:00 -8°C° 0 mm 6 mps 725 mmHg 88%

    Tomorrow, 23 January, Thursday

    Time Temperature Precipitation Wind Pressure Humidity
    00:00 -7°C° 0 mm 5 mps 726 mmHg 88%
    01:00 -7°C° 0 mm 5 mps 727 mmHg 89%
    02:00 -7°C° 0 mm 5 mps 727 mmHg 90%
    03:00 -8°C° 0 mm 6 mps 727 mmHg 90%
    04:00 -8°C° 0 mm 6 mps 728 mmHg 90%
    05:00 -8°C° 0 mm 7 mps 728 mmHg 90%
    06:00 -8°C° 0 mm 7 mps 728 mmHg 88%
    07:00 -9°C° 0 mm 7 mps 729 mmHg 86%
    08:00 -9°C° 0 mm 7 mps 730 mmHg 84%
    09:00 -9°C° 0 mm 7 mps 730 mmHg 83%
    10:00 -9°C° 0 mm 7 mps 731 mmHg 81%
    11:00 -9°C° 0 mm 6 mps 732 mmHg 80%
    12:00 -9°C° 0.1 mm 7 mps 732 mmHg 79%
    13:00 -9°C° 0.1 mm 7 mps 733 mmHg 78%
    14:00 -9°C° 0.1 mm 7 mps 733 mmHg 77%
    15:00 -10°C° 0 mm 6 mps 733 mmHg 78%
    16:00 -10°C° 0 mm 6 mps 734 mmHg 79%
    17:00 -11°C° 0 mm 5 mps 734 mmHg 80%
    18:00 -11°C° 0 mm 5 mps 734 mmHg 82%
    19:00 -11°C° 0 mm 5 mps 735 mmHg 84%
    20:00 -11°C° 0 mm 5 mps 735 mmHg 86%
    21:00 -11°C° 0 mm 5 mps 735 mmHg 87%
    22:00 -11°C° 0 mm 5 mps 736 mmHg 88%
    23:00 -11°C° 0 mm 5 mps 736 mmHg 90%

    Day after tomorrow, 24 January, Friday

    Time Temperature Precipitation Wind Pressure Humidity
    00:00 -10°C° 0 mm 4 mps 737 mmHg 90%
    01:00 -11°C° 0 mm 4 mps 737 mmHg 91%
    02:00 -10°C° 0 mm 3 mps 737 mmHg 91%
    03:00 -10°C° 0 mm 3 mps 737 mmHg 92%
    04:00 -10°C° 0 mm 3 mps 737 mmHg 92%
    05:00 -10°C° 0 mm 3 mps 736 mmHg 93%
    06:00 -10°C° 0 mm 3 mps 736 mmHg 92%
    07:00 -10°C° 0 mm 4 mps 736 mmHg 92%
    08:00 -10°C° 0 mm 4 mps 736 mmHg 91%
    09:00 -10°C° 0 mm 5 mps 736 mmHg 92%
    10:00 -8°C° 0 mm 5 mps 735 mmHg 92%
    11:00 -6°C° 0 mm 6 mps 735 mmHg 93%
    12:00 -7°C° 0.1 mm 7 mps 734 mmHg 93%
    13:00 -6°C° 0.1 mm 7 mps 734 mmHg 93%
    14:00 -6°C° 0.1 mm 8 mps 733 mmHg 93%
    15:00 -6°C° 0.2 mm 8 mps 732 mmHg 94%
    16:00 -4°C° 0.2 mm 7 mps 732 mmHg 94%
    17:00 -4°C° 0.2 mm 7 mps 731 mmHg 95%
    18:00 -3°C° 0.1 mm 7 mps 731 mmHg 95%
    19:00 -2°C° 0.1 mm 7 mps 731 mmHg 96%
    20:00 -1°C° 0.1 mm 7 mps 731 mmHg 97%
    21:00 -1°C° 0.3 mm 7 mps 730 mmHg 97%
    22:00 -1°C° 0.3 mm 7 mps 730 mmHg 97%
    23:00 -1°C° 0.3 mm 7 mps 730 mmHg 97%

    25 January, Saturday

    Time Temperature Precipitation Wind Pressure Humidity
    00:00 -1°C° 0.1 mm 7 mps 730 mmHg 97%
    01:00 -1°C° 0.1 mm 7 mps 729 mmHg 97%
    02:00 -1°C° 0.1 mm 7 mps 729 mmHg 97%
    03:00 -1°C° 0.1 mm 6 mps 729 mmHg 97%
    04:00 -2°C° 0.1 mm 6 mps 729 mmHg 97%
    05:00 -2°C° 0.1 mm 6 mps 729 mmHg 97%
    06:00 -2°C° 0.1 mm 6 mps 729 mmHg 97%
    07:00 -2°C° 0.1 mm 6 mps 729 mmHg 97%
    08:00 -2°C° 0.1 mm 6 mps 729 mmHg 97%
    09:00 -2°C° 0.2 mm 6 mps 729 mmHg 97%
    10:00 -2°C° 0.2 mm 6 mps 729 mmHg 97%
    11:00 -2°C° 0.2 mm 6 mps 729 mmHg 97%
    12:00 -2°C° 0.1 mm 6 mps 728 mmHg 97%
    13:00 -2°C° 0.1 mm 7 mps 728 mmHg 97%
    14:00 -2°C° 0.1 mm 7 mps 728 mmHg 98%
    15:00 -2°C° 0.1 mm 8 mps 728 mmHg 96%
    16:00 -2°C° 0.1 mm 8 mps 728 mmHg 95%
    17:00 -2°C° 0.1 mm 8 mps 728 mmHg 93%
    18:00 -2°C° 0 mm 8 mps 728 mmHg 90%
    19:00 -4°C° 0 mm 8 mps 728 mmHg 87%
    20:00 -4°C° 0 mm 8 mps 729 mmHg 84%
    21:00 -4°C° 0 mm 8 mps 729 mmHg 83%
    22:00 -4°C° 0 mm 8 mps 730 mmHg 83%
    23:00 -5°C° 0 mm 8 mps 730 mmHg 83%

    26 January, Sunday

    Time Temperature Precipitation Wind Pressure Humidity
    00:00 -4°C° 0 mm 7 mps 731 mmHg 82%
    01:00 -4°C° 0 mm 7 mps 731 mmHg 81%
    02:00 -5°C° 0 mm 6 mps 732 mmHg 80%
    03:00 -5°C° 0 mm 6 mps 732 mmHg 81%
    04:00 -5°C° 0 mm 6 mps 733 mmHg 81%
    05:00 -6°C° 0 mm 6 mps 733 mmHg 81%
    06:00 -6°C° 0 mm 6 mps 734 mmHg 82%
    07:00 -6°C° 0 mm 6 mps 735 mmHg 83%
    08:00 -6°C° 0 mm 5 mps 736 mmHg 84%
    09:00 -6°C° 0 mm 6 mps 736 mmHg 83%
    10:00 -5°C° 0 mm 6 mps 737 mmHg 82%
    11:00 -5°C° 0 mm 6 mps 738 mmHg 81%
    12:00 -5°C° 0 mm 5 mps 738 mmHg 80%
    13:00 -5°C° 0 mm 5 mps 739 mmHg 80%
    14:00 -4°C° 0 mm 4 mps 739 mmHg 80%
    15:00 -4°C° 0 mm 4 mps 739 mmHg 82%
    16:00 -5°C° 0 mm 3 mps 740 mmHg 84%
    17:00 -5°C° 0 mm 3 mps 740 mmHg 86%
    18:00 -5°C° 0 mm 3 mps 741 mmHg 87%
    19:00 -6°C° 0 mm 3 mps 741 mmHg 87%
    20:00 -6°C° 0 mm 3 mps 741 mmHg 87%
    21:00 -5°C° 0 mm 3 mps 742 mmHg 86%
    22:00 -5°C° 0 mm 3 mps 742 mmHg 86%
    23:00 -5°C° 0 mm 3 mps 742 mmHg 85%

    27 January, Monday

    Time Temperature Precipitation Wind Pressure Humidity
    00:00 -5°C° 0 mm 3 mps 742 mmHg 85%
    01:00 -5°C° 0 mm 3 mps 742 mmHg 84%
    02:00 -5°C° 0 mm 3 mps 742 mmHg 84%
    03:00 -5°C° 0 mm 4 mps 742 mmHg 84%
    04:00 -5°C° 0 mm 4 mps 742 mmHg 84%
    05:00 -5°C° 0 mm 4 mps 741 mmHg 84%
    06:00 -5°C° 0 mm 4 mps 741 mmHg 85%
    07:00 -5°C° 0 mm 4 mps 741 mmHg 87%
    08:00 -6°C° 0 mm 5 mps 741 mmHg 88%
    09:00 -5°C° 0 mm 5 mps 741 mmHg 88%
    10:00 -5°C° 0 mm 5 mps 741 mmHg 89%
    11:00 -4°C° 0 mm 5 mps 741 mmHg 89%
    12:00 -4°C° 0 mm 5 mps 741 mmHg 89%
    13:00 -4°C° 0 mm 5 mps 740 mmHg 89%
    14:00 -4°C° 0 mm 5 mps 740 mmHg 90%
    15:00 -4°C° 0 mm 5 mps 739 mmHg 91%
    16:00 -4°C° 0 mm 5 mps 739 mmHg 91%
    17:00 -5°C° 0 mm 5 mps 739 mmHg 92%
    18:00 -5°C° 0.1 mm 5 mps 738 mmHg 93%
    19:00 -4°C° 0.1 mm 5 mps 738 mmHg 94%
    20:00 -4°C° 0.1 mm 6 mps 737 mmHg 95%
    21:00 -4°C° 0.1 mm 6 mps 737 mmHg 95%
    22:00 -4°C° 0.1 mm 5 mps 736 mmHg 96%
    23:00 -4°C° 0.1 mm 5 mps 736 mmHg 96%
    Show more